Temp
56 56 56 55 56 55 56 55 52 49 48 47 48 49 50 52 56 57 57 60 60 60 60 60 60 61 61 61 60 62 61 63 63 63 63 62 62 61
58 57 56 55 54 55 54 53 52 51 46 48 46 47 49 51 53 53 54 57 58 58 57 57 58 58 59 58 59 59 59 60 60 60 60 61 60 60
57 56 55 55 54 53 52 54 52 51 45 46 47 47 46 47 49 50 51 51 53 57 57 56 56 57 57 56 56 56 57 57 57 57 58 58 59 59
58 56 56 55 52 52 52 52 51 51 48 44 45 44 44 46 46 46 47 49 50 57 57 56 55 55 54 54 54 54 54 54 55 56 56 56 56 57
58 57 56 55 53 50 50 50 50 50 49 46 44 45 45 45 42 38 38 38 47 53 54 55 54 53 53 52 51 51 52 52 52 53 53 54 54 55
58 57 55 54 52 50 49 48 49 47 47 46 44 44 44 44 38 36 35 36 36 43 46 49 51 52 51 51 50 49 49 49 50 50 50 51 51 52
55 55 54 55 55 53 49 48 48 46 43 41 38 37 37 35 35 35 33 33 34 33 35 37 37 37 41 48 49 49 48 48 49 49 49 49 49 50
53 54 55 56 56 56 55 54 47 41 38 36 34 33 31 31 32 32 32 31 29 34 31 33 34 35 38 42 49 48 48 47 47 48 48 48 48 48
52 52 51 52 51 51 52 52 51 50 46 36 32 30 30 31 31 30 28 27 26 29 30 29 30 33 40 42 47 47 47 47 47 47 47 47 47 47
48 46 45 44 44 43 42 40 40 40 40 41 34 32 32 32 34 32 30 28 29 31 29 28 32 35 38 35 45 46 46 45 46 46 47 46 46 46
48 47 45 44 49 48 42 39 39 41 49 50 49 49 48 45 39 33 29 29 27 27 28 28 27 31 29 29 32 43 44 44 44 45 45 46 45 43
47 46 49 47 49 46 38 36 32 30 33 33 34 36 38 42 41 31 29 28 27 26 30 28 26 26 26 28 28 29 30 41 41 42 43 45 44 33
43 43 46 49 48 46 42 36 35 37 38 33 33 33 32 32 32 31 30 31 29 27 31 30 26 26 27 25 27 28 27 28 28 30 39 44 44 42
42 44 46 49 48 47 44 46 44 39 34 32 31 29 28 28 29 30 31 30 31 30 30 31 27 25 24 24 24 27 27 28 27 28 29 38 40 41
45 48 50 49 49 47 47 46 41 33 32 31 30 28 27 28 29 30 31 31 30 32 35 29 29 27 24 22 23 24 26 28 27 27 28 29 29 30
49 44 45 45 45 45 40 36 33 31 31 30 28 28 29 29 29 29 29 29 29 29 30 31 28 28 26 24 24 23 22 24 26 27 28 28 29 30
40 38 37 35 33 32 31 31 30 31 30 29 30 30 30 30 29 29 30 29 28 27 28 30 29 28 27 26 25 24 24 25 26 26 28 27 28 28
38 34 32 32 31 31 31 30 30 33 29 30 30 30 30 30 30 30 30 28 27 27 27 28 28 29 29 30 34 26 25 24 26 26 27 26 27 29
34 33 31 31 31 30 29 30 30 29 30 30 29 29 30 31 30 30 30 30 29 28 28 28 28 25 22 24 29 36 26 27 27 27 26 26 25 27
33 32 31 31 30 30 31 31 30 30 30 30 30 30 30 30 29 29 29 28 28 28 28 28 28 26 18 18 22 29 37 27 26 26 27 28 30 38
31 31 31 31 30 30 31 31 31 30 30 30 29 29 29 29 28 28 29 35 31 27 26 27 27 37 29 29 26 27 29 36 34 28 27 26 26 27
32 31 30 31 31 31 31 31 31 31 30 29 29 29 29 29 28 28 28 27 27 27 27 27 29 30 29 27 24 24 26 29 34 39 40 37 30 27
32 32 31 31 31 31 31 30 30 30 30 29 30 30 30 29 29 29 29 28 28 28 28 28 28 28 28 28 28 26 27 27 27 29 31 40 41 41
MSLP
1012.35 1012.84 1013.32 1013.85 1014.03 1014.48 1014.58 1015.37 1016.22 1017.93 1019.30 1020.00 1019.93 1019.84 1019.52 1018.97 1018.31 1017.94 1017.88 1017.88 1017.92 1017.91 1017.87 1017.77 1017.87 1017.84 1017.87 1017.76 1017.73 1017.77 1017.79 1017.58 1017.66 1017.82 1017.90 1018.02 1018.28 1018.57
1012.50 1013.10 1013.42 1014.04 1014.78 1014.88 1015.08 1015.56 1016.04 1017.02 1018.92 1020.10 1020.63 1020.66 1020.23 1019.80 1019.53 1019.23 1019.18 1019.03 1018.90 1018.93 1018.96 1018.91 1018.87 1018.68 1018.66 1018.78 1018.64 1018.58 1018.57 1018.55 1018.64 1018.77 1018.82 1018.83 1018.90 1018.89
1012.82 1013.53 1014.19 1014.62 1015.05 1015.54 1015.58 1015.97 1016.57 1017.24 1018.73 1020.37 1020.90 1021.12 1020.95 1020.63 1020.46 1020.39 1020.38 1020.21 1020.07 1019.92 1019.88 1019.86 1019.85 1019.73 1019.72 1019.81 1019.80 1019.66 1019.54 1019.66 1019.70 1019.77 1019.79 1019.70 1019.61 1019.58
1013.16 1014.10 1014.94 1015.06 1015.45 1015.98 1016.15 1016.53 1017.04 1017.77 1018.47 1019.93 1021.17 1021.69 1021.59 1021.53 1021.53 1021.42 1021.43 1021.34 1021.18 1020.84 1020.84 1020.85 1020.92 1020.94 1020.91 1020.91 1020.85 1020.83 1020.68 1020.69 1020.79 1020.72 1020.64 1020.59 1020.70 1020.41
1013.57 1014.54 1015.15 1015.36 1015.80 1016.14 1016.74 1017.09 1017.67 1018.53 1019.27 1020.12 1021.29 1021.94 1022.29 1022.33 1022.51 1022.74 1022.92 1022.87 1022.40 1022.19 1022.02 1021.79 1021.89 1022.01 1022.04 1022.02 1022.08 1021.93 1021.85 1021.70 1021.72 1021.64 1021.62 1021.40 1021.36 1021.26
1014.24 1014.88 1015.39 1015.56 1016.14 1016.61 1017.09 1017.69 1018.27 1019.07 1020.11 1020.87 1021.73 1022.30 1022.65 1023.20 1023.31 1023.74 1024.25 1024.20 1024.10 1023.68 1023.44 1023.14 1022.94 1022.88 1022.97 1022.98 1023.09 1023.13 1023.07 1022.90 1022.77 1022.64 1022.45 1022.22 1022.28 1021.88
1015.01 1015.45 1016.02 1016.26 1016.45 1016.90 1017.26 1018.14 1018.85 1019.80 1020.87 1021.67 1022.44 1022.95 1023.41 1023.75 1024.15 1024.49 1024.84 1024.96 1025.13 1025.21 1024.92 1024.79 1024.55 1024.39 1024.12 1023.80 1023.86 1023.80 1023.71 1023.58 1023.45 1023.27 1023.10 1022.91 1022.73 1022.53
1015.65 1016.44 1016.58 1016.75 1016.98 1017.41 1018.01 1018.83 1019.70 1020.17 1021.39 1022.30 1023.29 1023.78 1024.22 1024.38 1024.68 1024.97 1025.17 1025.49 1025.80 1025.70 1025.89 1025.95 1025.61 1025.45 1025.04 1024.54 1024.40 1024.39 1024.32 1024.20 1024.03 1023.77 1023.61 1023.36 1023.12 1022.98
1016.49 1016.73 1017.43 1017.95 1017.64 1018.31 1019.17 1020.14 1020.74 1021.22 1022.06 1022.71 1023.71 1024.34 1024.66 1024.79 1024.95 1025.46 1025.84 1026.15 1026.71 1026.71 1026.53 1026.82 1026.73 1026.19 1025.78 1025.40 1025.03 1024.88 1024.77 1024.68 1024.45 1024.18 1024.02 1023.85 1023.58 1023.31
1017.39 1017.59 1018.14 1018.76 1019.08 1019.43 1020.34 1021.35 1022.15 1022.97 1023.56 1023.71 1024.19 1024.63 1024.82 1025.00 1025.10 1025.68 1026.18 1026.62 1026.91 1026.94 1026.89 1027.57 1027.32 1026.93 1026.52 1026.48 1025.82 1025.50 1025.21 1025.16 1024.86 1024.56 1024.25 1024.01 1023.81 1023.69
1018.07 1018.54 1018.75 1019.00 1020.10 1020.31 1020.79 1021.97 1023.20 1023.72 1023.79 1023.80 1023.97 1024.25 1024.52 1025.04 1025.60 1025.97 1026.62 1026.81 1027.69 1027.84 1027.70 1027.81 1027.93 1027.59 1027.46 1027.41 1026.95 1026.32 1025.90 1025.71 1025.42 1025.13 1024.74 1024.26 1023.96 1024.05
1019.08 1019.22 1019.89 1019.84 1020.70 1021.24 1021.76 1022.94 1024.00 1025.13 1025.31 1025.71 1026.18 1026.11 1026.07 1025.98 1026.24 1026.65 1026.96 1027.29 1027.75 1028.15 1027.94 1028.12 1028.31 1028.17 1028.11 1027.81 1027.59 1027.30 1026.89 1026.27 1025.95 1025.60 1025.16 1024.54 1024.32 1024.54
1019.48 1019.70 1020.61 1020.89 1021.21 1022.11 1022.91 1023.67 1024.45 1025.31 1025.93 1026.31 1026.77 1027.11 1027.39 1027.63 1027.72 1027.67 1027.68 1027.69 1027.96 1028.33 1028.27 1028.14 1028.61 1028.41 1028.43 1028.37 1028.00 1027.82 1027.58 1027.12 1026.62 1026.20 1025.64 1025.04 1024.76 1024.49
1019.52 1020.10 1021.15 1021.32 1021.97 1022.72 1023.51 1024.22 1024.95 1025.82 1026.53 1026.93 1027.42 1028.06 1028.33 1028.52 1028.66 1028.50 1028.37 1028.35 1028.35 1028.48 1028.56 1028.42 1028.90 1028.88 1028.87 1028.90 1028.76 1028.25 1027.85 1027.50 1027.18 1026.89 1026.46 1025.81 1025.40 1025.06
1020.08 1020.72 1021.18 1021.76 1022.53 1023.32 1024.19 1024.99 1025.95 1026.71 1027.09 1027.54 1028.26 1028.76 1028.97 1029.12 1029.04 1028.99 1028.94 1028.89 1028.91 1028.92 1028.89 1029.00 1029.06 1029.13 1029.17 1029.42 1029.33 1029.02 1028.46 1027.85 1027.68 1027.45 1027.01 1026.70 1026.45 1025.94
1020.82 1021.43 1021.98 1022.85 1023.60 1024.35 1025.48 1026.42 1027.03 1027.35 1027.55 1028.21 1028.81 1029.20 1029.32 1029.42 1029.60 1029.66 1029.62 1029.59 1029.59 1029.81 1029.61 1029.44 1029.44 1029.35 1029.53 1029.53 1029.44 1029.32 1028.94 1028.80 1028.28 1027.85 1027.46 1027.11 1026.74 1026.35
1021.30 1022.33 1023.18 1024.22 1025.07 1026.01 1026.71 1027.27 1027.71 1027.88 1028.36 1028.92 1029.30 1029.64 1029.90 1030.03 1030.25 1030.24 1030.23 1030.22 1030.29 1030.38 1030.26 1029.93 1029.73 1029.70 1029.73 1029.65 1029.61 1029.56 1029.38 1029.06 1028.78 1028.37 1027.81 1027.61 1027.26 1026.90
1022.28 1023.32 1024.48 1025.30 1026.14 1026.81 1027.49 1028.14 1028.47 1028.85 1029.32 1029.59 1029.88 1030.10 1030.40 1030.60 1030.71 1030.79 1030.71 1030.74 1030.81 1030.80 1030.68 1030.44 1030.12 1029.90 1029.80 1029.66 1029.40 1029.73 1029.56 1029.45 1029.13 1028.76 1028.40 1028.17 1027.80 1027.23
1023.04 1024.35 1025.17 1026.09 1026.81 1027.48 1028.06 1028.57 1029.13 1029.61 1029.85 1030.12 1030.41 1030.60 1030.75 1030.87 1031.06 1031.17 1031.17 1031.14 1031.23 1031.18 1031.06 1030.84 1030.67 1030.57 1030.52 1030.32 1029.83 1029.56 1029.83 1029.62 1029.35 1029.03 1028.78 1028.57 1028.40 1027.74
1024.10 1024.89 1025.82 1026.67 1027.34 1027.98 1028.56 1029.04 1029.59 1030.03 1030.35 1030.62 1030.86 1031.02 1031.16 1031.29 1031.46 1031.56 1031.51 1031.51 1031.50 1031.50 1031.43 1031.19 1030.99 1030.86 1030.89 1030.76 1030.59 1030.05 1029.62 1029.74 1029.58 1029.36 1029.07 1028.69 1028.30 1027.58
1024.95 1025.68 1026.42 1027.10 1027.79 1028.40 1028.91 1029.35 1029.80 1030.32 1030.66 1030.95 1031.27 1031.39 1031.52 1031.63 1031.85 1031.82 1031.73 1031.55 1031.71 1031.85 1031.86 1031.72 1031.54 1030.72 1030.90 1030.81 1030.89 1030.68 1030.17 1029.62 1029.39 1029.27 1029.12 1028.87 1028.60 1028.22
1025.49 1026.16 1026.96 1027.54 1028.17 1028.74 1029.22 1029.65 1030.13 1030.62 1030.99 1031.30 1031.61 1031.77 1031.88 1031.95 1032.13 1032.20 1032.21 1032.29 1032.35 1032.29 1032.25 1032.06 1031.78 1031.53 1031.48 1031.52 1031.48 1031.25 1030.84 1030.32 1029.69 1029.31 1028.92 1028.69 1028.72 1028.50
1025.83 1026.46 1027.21 1027.87 1028.52 1029.04 1029.45 1029.89 1030.37 1030.84 1031.21 1031.52 1031.83 1032.05 1032.16 1032.31 1032.42 1032.52 1032.60 1032.62 1032.62 1032.63 1032.57 1032.55 1032.38 1032.24 1032.16 1032.02 1031.72 1031.67 1031.38 1031.01 1030.66 1030.20 1029.85 1029.25 1028.89 1028.66
Wind_Speed
6 6 5 4 4 2 5 4 5 4 2 3 2 7 6 6 12 12 14 24 23 22 18 12 8 17 21 20 13 12 8 13 13 15 15 16 16 18
6 8 7 4 4 4 4 3 3 4 4 2 4 4 5 7 13 12 14 19 23 23 21 21 21 21 20 18 16 15 16 18 18 17 16 16 16 17
7 8 7 6 5 4 4 5 6 6 8 3 3 5 6 8 9 10 10 9 10 23 24 24 22 22 22 23 22 20 20 18 17 15 14 15 15 15
10 9 8 6 8 5 5 7 7 6 7 10 2 4 6 6 7 9 8 8 6 20 22 22 22 21 21 20 19 18 18 19 18 17 17 17 15 17
11 10 9 9 8 6 6 8 8 8 6 7 5 2 3 3 7 6 6 6 8 18 19 19 20 23 24 26 25 25 22 20 18 17 16 17 17 15
10 9 7 9 8 9 9 9 9 9 8 8 6 3 3 4 4 5 7 7 6 8 14 17 17 18 18 19 20 19 18 18 17 16 16 17 15 16
11 10 9 12 17 13 9 10 11 9 7 6 4 4 3 3 3 1 4 3 7 6 5 7 6 5 7 12 14 17 17 16 15 14 13 13 14 13
12 11 13 19 22 25 24 20 12 9 7 4 2 4 3 2 2 2 2 2 3 5 4 5 5 6 5 4 13 13 15 16 15 14 14 13 13 15
14 13 13 12 19 18 27 27 24 22 14 6 6 3 3 2 4 4 5 4 3 4 2 4 4 4 6 7 14 14 13 12 12 13 12 11 12 12
13 13 14 14 15 18 18 17 15 12 10 8 7 5 5 4 6 5 5 5 3 4 3 3 4 4 5 6 16 14 13 13 13 15 14 13 9 11
12 12 12 17 24 26 18 17 14 12 19 23 22 21 19 17 9 4 3 4 4 4 5 3 3 3 4 4 5 15 15 14 13 13 12 13 10 10
11 14 21 19 25 23 16 14 14 6 9 10 9 14 15 18 19 8 3 4 3 3 4 3 3 2 2 2 3 4 5 14 13 13 11 13 11 4
9 11 11 25 25 24 20 12 13 11 15 9 8 8 8 7 6 6 6 5 5 3 3 3 4 3 2 3 3 3 3 5 4 6 13 14 16 13
12 11 15 27 27 25 17 25 23 14 7 7 7 6 5 4 4 4 6 5 5 5 3 4 2 2 2 3 3 4 3 4 4 4 4 10 14 16
12 20 28 26 26 21 24 22 15 6 6 8 7 4 2 3 3 4 4 6 6 6 5 4 4 3 3 2 2 3 4 4 4 4 4 4 4 4
21 15 18 18 18 18 13 10 6 4 6 6 4 3 2 4 4 3 3 3 5 5 6 6 6 4 3 2 2 3 3 3 5 4 3 3 4 5
16 11 9 8 9 8 7 6 5 5 6 3 6 5 5 4 3 3 3 3 4 3 3 4 4 3 3 2 3 3 4 3 4 4 4 4 4 4
11 10 9 8 8 7 7 6 4 8 4 5 5 4 5 4 4 3 3 3 3 3 3 3 4 4 4 3 7 3 3 3 3 4 4 3 4 5
10 8 9 8 7 6 5 5 5 4 4 5 4 4 4 4 4 3 3 2 2 2 3 2 3 2 3 3 4 6 3 3 4 4 3 3 3 4
7 9 9 7 7 7 6 7 6 5 5 5 4 4 4 3 3 3 3 2 3 3 3 3 3 2 3 2 2 3 8 3 3 3 4 3 3 9
6 7 7 7 6 6 6 6 6 5 5 5 4 4 4 3 3 3 3 7 6 3 3 3 3 8 2 2 4 4 4 9 5 1 3 2 3 4
6 8 6 6 6 6 6 6 5 6 5 4 4 4 3 4 4 4 4 3 3 2 2 2 4 4 4 3 3 4 4 5 7 11 16 4 0 4
7 7 6 6 6 6 6 6 6 5 5 4 4 4 4 4 3 3 3 3 4 3 3 3 3 3 3 3 5 4 6 5 4 5 6 15 14 12
Wind_Direction
115 110 104 81 74 108 114 134 134 136 111 31 34 3 2 19 45 56 59 66 67 66 65 65 58 70 60 54 64 58 75 93 90 86 76 72 66 57
115 110 98 89 80 68 95 104 98 118 122 84 45 9 2 45 47 51 55 58 65 64 61 60 59 58 58 53 51 67 70 71 69 68 68 69 63 60
101 108 97 104 94 80 78 86 88 101 118 96 69 14 32 53 55 57 51 51 55 62 61 60 60 62 61 58 56 60 65 63 65 63 60 56 51 47
116 108 113 100 87 78 83 90 100 103 125 120 86 49 54 40 55 52 42 36 36 67 66 60 57 56 56 54 57 57 55 55 56 57 54 50 41 39
119 116 116 111 105 98 88 88 95 100 100 115 111 87 74 50 60 39 30 17 35 51 50 60 65 62 62 60 54 53 54 57 52 49 43 40 31 23
108 110 107 108 116 103 96 95 101 101 102 106 107 103 95 63 67 73 58 35 30 33 42 45 54 57 60 57 55 51 45 42 39 35 31 29 17 13
92 95 99 107 102 105 103 100 101 99 92 91 72 59 55 56 92 59 95 75 47 16 37 28 26 22 18 44 46 44 42 38 29 23 17 15 11 6
100 102 102 102 101 98 95 89 92 109 105 102 75 91 52 68 63 82 85 63 55 11 37 36 18 29 4 30 51 40 36 29 23 24 20 11 8 7
113 105 98 90 91 92 88 87 83 84 86 102 107 96 91 81 120 73 58 77 86 314 57 35 1 36 22 16 41 33 35 27 24 21 20 16 7 358
106 108 108 102 100 102 97 89 83 79 77 84 92 100 99 105 96 117 114 108 77 37 33 71 343 40 32 18 25 24 31 34 21 12 12 11 26 17
98 99 108 108 113 110 102 96 88 80 84 87 86 86 87 104 111 97 61 87 61 4 7 88 344 347 20 0 358 27 23 22 19 11 7 360 37 38
104 107 107 113 113 107 104 109 100 87 95 81 68 65 61 72 67 60 68 92 101 42 341 72 360 4 4 331 350 7 352 12 8 16 15 14 48 29
120 108 109 114 111 109 104 105 115 122 101 92 86 75 64 60 54 48 48 77 79 75 323 90 14 9 59 322 327 357 354 340 344 359 14 29 32 28
116 112 118 115 114 113 110 116 115 105 98 92 87 76 75 64 48 52 54 58 58 97 44 87 71 38 40 9 348 337 329 342 0 354 350 23 28 15
113 123 120 117 115 110 115 115 104 94 98 90 88 75 66 115 90 47 43 56 52 35 49 52 88 55 59 51 323 330 1 331 357 358 4 15 360 342
115 106 109 108 108 109 99 91 87 84 96 98 87 78 71 59 61 39 50 33 59 50 36 48 52 60 37 42 27 350 342 13 331 353 357 3 358 357
107 101 98 97 97 96 84 78 73 71 82 69 86 84 75 72 60 48 45 41 69 50 17 356 15 65 74 53 32 13 348 353 342 340 18 3 349 347
107 110 108 106 112 112 108 97 80 98 80 88 79 82 86 81 79 58 53 59 67 38 27 358 2 22 12 355 73 14 13 356 337 351 12 21 356 338
109 114 114 116 115 109 106 107 106 91 94 85 90 89 84 73 90 75 70 60 42 20 8 356 22 56 36 28 336 70 40 355 345 9 8 15 331 320
107 120 118 120 117 116 114 112 106 98 93 96 89 89 87 90 81 69 59 62 46 28 28 16 28 45 128 221 292 317 11 10 13 343 349 326 288 341
113 111 115 119 114 115 116 111 111 111 111 104 92 95 94 93 76 63 59 82 79 45 40 21 326 76 36 25 27 356 332 3 38 336 313 357 344 334
119 118 116 115 116 121 121 118 107 109 107 102 101 98 92 89 90 83 66 70 54 61 46 13 20 33 35 49 16 356 346 339 2 31 27 71 75 15
125 124 124 121 120 121 119 117 117 115 113 114 112 109 105 90 85 89 80 74 81 63 48 41 24 31 29 14 48 3 10 6 354 1 6 31 43 45